[[{"header":{"parameterUnit":"m.s-1","parameterCategory":1,"la1":30.2991,"la2":30.254,"lo1":-89.0895,"lo2":-89.0444,"dy":0.0017,"dx":0.0017,"nx":28,"ny":28,"refTime":"2025-11-24T03:00:00:Z","depth":0,"parameterNumber":2,"parameterNumberName":"U-component_of_WINDS"},"data":[0,0,0,0,0,0,0,0,0,0,0,0,0,0,0,0,0,0,0,0,0,0,0,0,0,0,0,0,0,0,0,0,0,0,0,0,0,0,0,0,0,0,0,0,0,0,0,0,0,0,0,0,0,0,0,0,0,0,-1.6132,-1.6132,0,-1.6132,-1.6132,-1.6132,-1.608,-1.6079,-1.6078,-1.6076,-1.6078,-1.6079,-1.608,0,0,0,0,0,0,0,0,0,0,0,0,0,-1.6089,-1.609,-1.6132,-1.6132,-1.6132,-1.6132,-1.6132,-1.6132,-1.6081,-1.6079,-1.6077,-1.6076,-1.6078,-1.6079,-1.6081,0,0,0,0,0,0,0,0,0,0,0,0,0,-1.61,-1.6091,-1.6132,-1.6106,-1.6104,-1.6132,-1.6132,-1.6132,-1.6081,-1.6079,-1.6077,-1.6075,-1.6077,-1.6079,-1.6081,-1.6134,0,0,-1.6087,-1.6088,0,0,0,0,0,0,0,0,-1.61,-1.6102,-1.611,-1.6108,-1.6106,-1.6104,-1.6117,-1.6133,-1.6082,-1.609,-1.6076,-1.6074,-1.6088,-1.6089,-1.6094,-1.6134,-1.6134,-1.6087,-1.6088,-1.6089,-1.609,0,0,0,0,0,0,0,-1.6099,-1.6102,-1.6132,-1.611,-1.6108,-1.6095,-1.6095,-1.612,-1.6101,-1.6089,-1.6085,-1.6086,-1.6087,-1.6092,-1.6093,-1.6134,-1.6087,-1.6089,-1.609,-1.6091,-1.6217,-1.6219,0,0,0,0,0,0,-1.6102,-1.6101,-1.6132,-1.6132,-1.6098,-1.6098,-1.6097,-1.6107,-1.61,-1.6097,-1.6088,-1.6083,-1.609,-1.6091,-1.6093,-1.6155,-1.6089,-1.6091,-1.6092,-1.6215,-1.6217,-1.622,0,0,0,0,0,0,-1.6101,-1.6105,-1.6132,-1.6116,-1.6118,-1.6101,-1.6112,-1.6108,-1.6113,-1.6099,-1.6095,-1.6096,-1.6088,-1.6091,-1.6124,-1.6154,-1.6092,-1.6093,-1.6212,-1.6216,-1.6219,-1.6278,0,0,0,0,0,0,-1.61,-1.6105,-1.6125,-1.6117,-1.6119,-1.6163,-1.6114,-1.6109,-1.6116,-1.6111,-1.6106,-1.6104,-1.6087,-1.6121,-1.6126,-1.6156,-1.6095,-1.6209,-1.6214,-1.6218,-1.6274,-1.6283,-1.6291,0,0,0,0,0,-1.6099,-1.6142,-1.6126,-1.613,-1.6144,-1.6164,-1.6166,-1.6145,-1.6119,-1.6139,-1.613,-1.6104,-1.615,-1.6125,-1.613,-1.6161,-1.6207,-1.6212,-1.6217,-1.627,-1.6281,-1.6291,0,0,0,0,0,0,-1.6155,-1.614,-1.6123,-1.6164,-1.6166,-1.6156,-1.618,-1.6158,-1.6168,-1.6162,-1.6136,-1.6136,-1.6173,-1.617,-1.6143,-1.6211,-1.6174,-1.618,-1.6212,-1.6223,-1.6232,-1.6232,-1.6097,0,0,0,0,0,-1.6172,-1.619,-1.6176,-1.6214,-1.6216,-1.6198,-1.6206,-1.619,-1.6191,-1.6191,-1.6185,-1.6187,-1.6202,-1.6212,-1.6225,-1.6272,-1.6271,-1.6296,-1.6305,-1.6312,-1.6318,-1.6343,-1.6354,-1.6236,-1.6236,-1.6236,0,0,-1.6208,-1.6202,-1.6215,-1.6226,-1.6225,-1.6244,-1.6199,-1.6221,-1.6236,-1.6195,-1.6226,-1.6221,-1.6222,-1.6262,-1.628,-1.6261,-1.6351,-1.6319,-1.6325,-1.6327,-1.6349,-1.6361,-1.6371,-1.6239,-1.6239,-1.6238,0,0,-1.6283,-1.628,-1.6312,-1.6312,-1.6311,-1.6299,-1.6306,-1.6299,-1.6294,-1.6325,-1.6294,-1.6311,-1.6337,-1.6339,-1.6343,-1.6419,-1.6395,-1.6423,-1.6471,-1.6495,-1.6505,-1.6513,-1.654,-1.655,-1.6429,-1.6429,-1.6429,0,-1.6328,-1.6356,-1.6331,-1.6355,-1.6361,-1.6324,-1.6356,-1.6357,-1.6361,-1.6366,-1.6344,-1.6376,-1.6374,-1.6415,-1.6433,-1.6438,-1.6446,-1.6424,-1.6505,-1.6513,-1.652,-1.6546,-1.6556,-1.6433,-1.6432,-1.6432,-1.6432,0,-1.6411,-1.6431,-1.6456,-1.646,-1.6468,-1.6497,-1.6477,-1.6488,-1.6471,-1.6461,-1.6492,-1.6488,-1.65,-1.6508,-1.6492,-1.6546,-1.6535,-1.6509,-1.6472,-1.6535,-1.6559,-1.6569,-1.6438,-1.6436,-1.6435,-1.6435,0,0,-1.6523,-1.6512,-1.6522,-1.6523,-1.6519,-1.6534,-1.656,-1.6571,-1.6581,-1.6585,-1.6607,-1.6629,-1.6606,-1.6611,-1.6594,-1.6616,-1.6676,-1.6588,-1.6587,-1.6605,-1.6736,-1.6756,-1.6768,-1.666,-1.6662,-1.6663,-1.6737,0,-1.6596,-1.664,-1.6619,-1.6666,-1.6683,-1.6648,-1.6671,-1.6671,-1.6663,-1.6677,-1.6667,-1.6684,-1.6651,-1.6654,-1.6673,-1.6665,-1.6702,-1.6659,-1.6681,-1.6682,-1.6683,-1.678,-1.6801,-1.687,-1.6746,-1.6747,-1.6748,0,-1.6688,-1.6695,-1.6743,-1.6736,-1.6742,-1.6763,-1.6771,-1.6785,-1.6784,-1.6776,-1.6782,-1.676,-1.6785,-1.6747,-1.6782,-1.6753,-1.6761,-1.6758,-1.676,-1.6762,-1.672,-1.6785,-1.6892,-1.6903,-1.6763,-1.6761,-1.676,0,-1.6765,-1.6787,-1.6818,-1.682,-1.6812,-1.6828,-1.6825,-1.6822,-1.683,-1.6837,-1.6841,-1.6851,-1.6857,-1.6866,-1.6847,-1.6821,-1.6885,-1.6845,-1.688,-1.688,-1.6896,-1.6895,-1.7006,-1.69,-1.6899,-1.6899,-1.6899,0,-1.685,-1.6881,-1.6853,-1.6873,-1.6906,-1.6881,-1.6916,-1.6909,-1.6907,-1.6925,-1.6895,-1.6913,-1.6887,-1.6902,-1.6888,-1.6919,-1.6922,-1.6917,-1.6913,-1.692,-1.6921,-1.6925,-1.692,-1.6902,-1.6901,-1.6901,-1.69,0,-1.6943,-1.6925,-1.6957,-1.6946,-1.6944,-1.697,-1.6961,-1.6979,-1.6967,-1.699,-1.6994,-1.6977,-1.6993,-1.6975,-1.699,-1.6981,-1.7024,-1.7012,-1.7024,-1.7021,-1.7056,-1.7054,-1.7174,-1.7189,-1.7073,-1.7074,-1.7075,0,-1.6998,-1.7021,-1.7013,-1.7022,-1.7021,-1.7037,-1.7044,-1.702,-1.7029,-1.703,-1.7048,-1.7062,-1.7071,-1.7099,-1.7088,-1.71,-1.7089,-1.713,-1.709,-1.7097,-1.709,-1.7089,-1.7091,-1.7139,-1.714,-1.7141,-1.7142,0,-1.7099,-1.7089,-1.71,-1.7109,-1.7118,-1.7124,-1.7127,-1.7137,-1.7112,-1.7123,-1.7139,-1.7147,-1.7161,-1.7176,-1.7184,-1.7181,-1.7158,-1.7154,-1.7163,-1.7171,-1.7177,-1.7175,-1.7047,-1.7152,-1.7151,-1.715,-1.715,-1.7149,-1.7175,-1.7194,-1.7191,-1.7204,-1.7204,-1.7208,-1.7224,-1.7214,-1.7227,-1.7237,-1.7222,-1.7242,-1.724,-1.7249,-1.7249,-1.7265,-1.7247,-1.726,-1.7263,-1.7267,-1.7272,-1.7174,-1.7266,-1.7266,-1.7265,-1.7265,-1.7265,0,-1.7275,-1.7271,-1.7283,-1.7289,-1.73,-1.7275,-1.7278,-1.7289,-1.7306,-1.7307,-1.7316,-1.7335,-1.7348,-1.7338,-1.7349,-1.7363,-1.7353,-1.7367,-1.7366,-1.7366,-1.7287,-1.7279,-1.7376,-1.7376,-1.7376,-1.7376,-1.7376,-1.7375,-1.7328,-1.7359,-1.7348,-1.7378,-1.7374,-1.7393,-1.7396,-1.7399,-1.7399,-1.7421,-1.7432,-1.7425,-1.7421,-1.7431,-1.7443,-1.7439,-1.7445,-1.7463,-1.7456,-1.7383,-1.7372,-1.7362,-1.7354,-1.7465,-1.7465,-1.7534,-1.7535,-1.7536]},{"header":{"parameterUnit":"m.s-1","parameterCategory":1,"la1":30.2991,"la2":30.254,"lo1":-89.0895,"lo2":-89.0444,"dy":0.0017,"dx":0.0017,"nx":28,"ny":28,"refTime":"2025-11-24T03:00:00:Z","depth":0,"parameterNumber":3,"parameterNumberName":"V-component_of_WINDS"},"data":[0,0,0,0,0,0,0,0,0,0,0,0,0,0,0,0,0,0,0,0,0,0,0,0,0,0,0,0,0,0,0,0,0,0,0,0,0,0,0,0,0,0,0,0,0,0,0,0,0,0,0,0,0,0,0,0,0,0,-0.6857,-0.6857,0,-0.6875,-0.6875,-0.6875,-0.6874,-0.6874,-0.6873,-0.6873,-0.6891,-0.6892,-0.6892,0,0,0,0,0,0,0,0,0,0,0,0,0,-0.682,-0.6821,-0.6857,-0.6857,-0.6857,-0.6875,-0.6875,-0.6875,-0.6874,-0.6874,-0.6873,-0.6873,-0.6891,-0.6892,-0.6892,0,0,0,0,0,0,0,0,0,0,0,0,0,-0.6837,-0.6821,-0.6857,-0.6859,-0.6859,-0.6875,-0.6875,-0.6875,-0.6874,-0.6874,-0.6873,-0.6873,-0.689,-0.6891,-0.6893,-0.6907,0,0,-0.6896,-0.6896,0,0,0,0,0,0,0,0,-0.6836,-0.6838,-0.6858,-0.6859,-0.6859,-0.6872,-0.6869,-0.6886,-0.6874,-0.6868,-0.6873,-0.6873,-0.6885,-0.6886,-0.6891,-0.6908,-0.6909,-0.6896,-0.6897,-0.6897,-0.6897,0,0,0,0,0,0,0,-0.6835,-0.6837,-0.6864,-0.6858,-0.6859,-0.6858,-0.686,-0.6872,-0.6879,-0.6869,-0.6869,-0.6871,-0.6885,-0.6889,-0.6891,-0.6909,-0.6896,-0.6897,-0.6898,-0.6898,-0.6938,-0.6939,0,0,0,0,0,0,-0.6833,-0.6836,-0.6863,-0.6864,-0.6846,-0.6859,-0.6861,-0.6868,-0.6878,-0.688,-0.6871,-0.6871,-0.6888,-0.689,-0.6892,-0.6909,-0.6897,-0.6898,-0.6899,-0.6938,-0.6938,-0.6939,0,0,0,0,0,0,-0.6832,-0.6836,-0.6863,-0.685,-0.6854,-0.686,-0.6868,-0.6869,-0.6873,-0.688,-0.6881,-0.6875,-0.6888,-0.689,-0.6903,-0.6909,-0.6899,-0.69,-0.6937,-0.6938,-0.6939,-0.6943,0,0,0,0,0,0,-0.6831,-0.6835,-0.6841,-0.6851,-0.6854,-0.6874,-0.6868,-0.6869,-0.6875,-0.6875,-0.6884,-0.6885,-0.6887,-0.6901,-0.6904,-0.6911,-0.69,-0.6937,-0.6938,-0.6938,-0.6943,-0.6944,-0.6945,0,0,0,0,0,-0.683,-0.6842,-0.6842,-0.6845,-0.6862,-0.6875,-0.6877,-0.6879,-0.6876,-0.6881,-0.6886,-0.6885,-0.6908,-0.6903,-0.6906,-0.6913,-0.6936,-0.6937,-0.6938,-0.6942,-0.6944,-0.6945,0,0,0,0,0,0,-0.6834,-0.6843,-0.6843,-0.6858,-0.6866,-0.6874,-0.6882,-0.6881,-0.689,-0.6889,-0.6892,-0.6894,-0.6907,-0.6911,-0.6905,-0.6927,-0.6922,-0.6923,-0.6924,-0.6925,-0.6926,-0.6925,-0.6901,0,0,0,0,0,-0.6836,-0.6846,-0.6854,-0.6866,-0.687,-0.6875,-0.6881,-0.6882,-0.689,-0.6893,-0.6898,-0.6905,-0.6914,-0.692,-0.6929,-0.6943,-0.6945,-0.6949,-0.6951,-0.6952,-0.6953,-0.696,-0.6962,-0.6942,-0.6942,-0.6942,0,0,-0.6842,-0.6848,-0.6854,-0.6867,-0.6873,-0.6882,-0.6878,-0.6888,-0.6895,-0.6894,-0.6907,-0.6911,-0.6919,-0.6933,-0.6939,-0.6937,-0.6959,-0.6953,-0.6954,-0.6954,-0.6961,-0.6963,-0.6965,-0.6943,-0.6942,-0.6942,0,0,-0.6856,-0.6862,-0.6873,-0.6879,-0.6887,-0.6891,-0.6893,-0.6902,-0.6904,-0.6917,-0.6916,-0.6924,-0.694,-0.6945,-0.695,-0.6966,-0.6965,-0.6968,-0.6975,-0.6982,-0.6983,-0.6985,-0.699,-0.6991,-0.697,-0.697,-0.697,0,-0.6862,-0.6876,-0.6879,-0.6889,-0.6894,-0.6894,-0.6905,-0.691,-0.6921,-0.6925,-0.6922,-0.6941,-0.6946,-0.6961,-0.6964,-0.6968,-0.6971,-0.6967,-0.6983,-0.6984,-0.6986,-0.699,-0.6992,-0.697,-0.697,-0.697,-0.697,0,-0.6882,-0.6892,-0.6899,-0.691,-0.6916,-0.6926,-0.693,-0.6936,-0.6937,-0.694,-0.6953,-0.6959,-0.6969,-0.6972,-0.6973,-0.6986,-0.6985,-0.6982,-0.6977,-0.6988,-0.6992,-0.6994,-0.6971,-0.697,-0.697,-0.697,0,0,-0.6899,-0.691,-0.6913,-0.6917,-0.6927,-0.6934,-0.6944,-0.6953,-0.6958,-0.6965,-0.6973,-0.6986,-0.6984,-0.6989,-0.6991,-0.6997,-0.7007,-0.6994,-0.6994,-0.6995,-0.7022,-0.7023,-0.7025,-0.7007,-0.7007,-0.7008,-0.7021,0,-0.6914,-0.6932,-0.6934,-0.695,-0.6958,-0.6958,-0.6966,-0.6972,-0.6976,-0.6983,-0.6987,-0.6995,-0.6992,-0.6995,-0.7001,-0.7005,-0.7013,-0.7004,-0.7014,-0.7014,-0.7011,-0.7027,-0.7029,-0.704,-0.7022,-0.7023,-0.7023,0,-0.6934,-0.6941,-0.6958,-0.6965,-0.6968,-0.6976,-0.6984,-0.6992,-0.6998,-0.7,-0.7006,-0.7006,-0.7016,-0.701,-0.7023,-0.7017,-0.7021,-0.7024,-0.7024,-0.7025,-0.7019,-0.7027,-0.7044,-0.7046,-0.7026,-0.7025,-0.7025,0,-0.6944,-0.6958,-0.6969,-0.6973,-0.6982,-0.6987,-0.6991,-0.6997,-0.7003,-0.701,-0.7013,-0.7021,-0.7025,-0.7031,-0.7034,-0.703,-0.7046,-0.7041,-0.7047,-0.7047,-0.705,-0.705,-0.7068,-0.7054,-0.7054,-0.7054,-0.7054,0,-0.696,-0.6969,-0.6974,-0.6981,-0.6991,-0.6994,-0.7004,-0.7008,-0.7013,-0.7021,-0.7021,-0.7027,-0.7031,-0.7037,-0.7039,-0.7049,-0.7051,-0.7053,-0.7053,-0.7052,-0.7052,-0.7055,-0.7054,-0.7054,-0.7054,-0.7054,-0.7054,0,-0.6972,-0.6976,-0.6988,-0.6995,-0.6997,-0.7005,-0.7011,-0.7017,-0.702,-0.7029,-0.7031,-0.7036,-0.7044,-0.7047,-0.7057,-0.7058,-0.7069,-0.7069,-0.7067,-0.7067,-0.7073,-0.7072,-0.7092,-0.7094,-0.708,-0.708,-0.708,0,-0.6982,-0.699,-0.6997,-0.7002,-0.7006,-0.7014,-0.7019,-0.7022,-0.7027,-0.7034,-0.704,-0.7048,-0.7054,-0.7067,-0.7071,-0.7079,-0.7078,-0.7085,-0.7079,-0.7078,-0.7077,-0.7077,-0.7077,-0.7086,-0.7086,-0.7086,-0.7086,0,-0.6999,-0.7,-0.7007,-0.7015,-0.7021,-0.7027,-0.7033,-0.7037,-0.704,-0.7046,-0.7054,-0.7059,-0.7069,-0.7077,-0.7084,-0.7088,-0.7087,-0.7088,-0.7089,-0.7089,-0.7087,-0.7087,-0.7069,-0.7087,-0.7087,-0.7087,-0.7087,-0.7087,-0.701,-0.7016,-0.7022,-0.703,-0.7035,-0.704,-0.7046,-0.705,-0.7057,-0.7065,-0.7066,-0.7075,-0.708,-0.709,-0.7094,-0.71,-0.7099,-0.7101,-0.7102,-0.7102,-0.7102,-0.7086,-0.7102,-0.7102,-0.7102,-0.7102,-0.7102,0,-0.7026,-0.7029,-0.7037,-0.7045,-0.7051,-0.705,-0.7056,-0.7061,-0.7069,-0.7074,-0.7081,-0.709,-0.7097,-0.7101,-0.7108,-0.7113,-0.7113,-0.7114,-0.7114,-0.7115,-0.7104,-0.7101,-0.7114,-0.7114,-0.7114,-0.7114,-0.7114,-0.7114,-0.7035,-0.7045,-0.7047,-0.7059,-0.7062,-0.7071,-0.7074,-0.7079,-0.7083,-0.7093,-0.71,-0.7102,-0.7107,-0.7114,-0.7121,-0.7122,-0.7124,-0.7126,-0.7127,-0.7117,-0.7115,-0.7114,-0.7112,-0.7127,-0.7127,-0.7137,-0.7137,-0.7137]}]]